Wind_Speed
60 62 63 64 67 70 69 68 66 64 61 58 56 55 53 50 46 44 40 38 36 35 33 33 32 32 28 32 35 36 30 35 39 36 37 35 36 34 39 44 40 44 45 53 53 53 55 53 54 55 57 56 55 54
59 59 58 57 59 62 63 67 67 64 62 59 57 55 53 48 45 41 42 40 38 40 37 38 34 35 35 30 32 37 34 33 41 41 38 38 37 37 42 49 47 49 48 56 58 56 56 55 55 51 54 57 58 58
61 56 55 54 54 55 57 57 58 61 58 56 57 54 49 42 36 34 34 34 34 38 42 35 40 37 36 35 34 38 38 33 34 42 45 43 47 39 43 43 52 54 52 53 54 59 59 60 60 58 59 61 61 61
72 66 62 56 54 53 52 51 49 49 51 50 48 45 40 36 33 33 34 34 33 30 35 37 39 40 41 42 39 42 43 39 36 39 48 51 51 49 50 52 50 57 56 56 52 56 58 67 65 64 64 63 64 67
81 78 73 67 62 60 59 58 54 52 49 49 49 48 47 42 41 42 42 43 38 33 30 32 38 39 43 46 49 48 52 46 43 45 41 51 53 54 53 56 56 59 61 59 55 60 56 60 65 70 68 68 68 69
87 86 84 78 74 73 70 67 66 65 62 57 56 56 55 54 48 47 47 52 50 44 40 40 41 44 48 49 52 48 52 60 59 54 53 57 60 57 55 58 65 64 65 68 67 68 68 68 68 67 67 73 73 72
95 92 90 90 87 84 81 80 77 74 71 72 70 65 62 61 60 57 56 62 57 51 48 50 47 46 55 55 59 61 58 58 61 62 61 65 69 66 65 64 63 69 72 73 73 72 74 75 73 74 74 75 77 78
97 99 97 96 95 92 90 87 87 84 83 82 81 79 74 70 67 69 67 66 63 63 56 54 47 47 57 59 66 68 68 69 68 66 65 71 72 73 72 73 71 75 76 78 82 82 79 79 80 78 79 81 83 81
105 100 99 99 98 99 98 96 91 92 89 90 91 90 85 81 81 82 84 77 71 70 68 63 63 69 66 70 73 72 73 75 73 74 79 78 72 74 87 82 80 81 82 84 86 89 87 85 85 85 86 87 86 88
115 111 107 105 102 101 100 98 99 101 99 97 95 97 96 92 91 90 87 85 86 84 80 79 81 80 82 83 82 83 82 82 80 79 85 84 79 88 90 83 85 89 90 92 92 95 94 92 92 94 92 91 92 92
128 121 116 114 114 111 110 111 104 104 105 107 104 101 101 98 97 97 93 92 91 88 89 89 95 97 98 95 96 95 92 91 85 82 86 86 81 99 93 92 91 93 96 101 100 99 98 97 99 101 101 102 102 104
130 126 124 122 122 121 120 118 115 111 113 112 110 110 108 107 106 106 105 105 102 105 101 100 100 101 103 108 109 106 107 107 102 96 94 91 99 105 96 95 98 101 104 105 106 107 106 106 107 107 109 111 110 112
125 127 127 129 127 128 125 124 123 121 120 121 120 118 114 113 112 109 109 110 113 113 110 111 111 112 112 113 118 119 117 114 111 105 107 117 120 107 105 107 110 111 112 114 115 112 111 113 114 114 113 114 115 116
124 123 124 124 125 128 127 125 126 126 128 129 129 124 118 114 111 115 117 119 120 120 120 122 120 120 122 124 126 127 126 124 118 115 119 126 118 109 111 116 117 118 116 117 119 121 120 118 116 120 122 119 119 119
127 124 123 122 124 127 128 127 129 130 132 134 135 128 120 117 120 121 124 127 131 133 132 131 128 127 130 132 134 135 133 129 124 128 134 120 114 115 114 112 116 116 117 117 119 119 119 120 117 110 107 107 111 114
129 127 123 126 127 126 129 131 132 132 135 134 129 121 120 122 124 128 131 133 134 136 135 134 136 135 135 134 132 128 130 128 128 126 121 115 111 110 110 110 110 112 113 113 115 115 113 113 116 112 106 108 109 105
128 124 125 129 129 130 133 134 136 137 138 135 122 120 119 121 124 128 131 131 133 135 136 134 132 131 132 126 121 123 122 128 127 123 118 115 114 115 114 111 111 115 116 114 110 111 110 109 109 107 103 103 103 99
118 117 122 126 128 132 135 135 136 141 140 131 126 120 124 124 123 126 130 133 132 132 132 129 128 127 126 124 123 122 122 121 119 118 114 113 118 121 119 115 115 112 111 110 110 108 107 108 106 102 99 96 94 91
109 113 116 120 124 128 129 131 134 138 137 130 122 119 124 126 127 130 133 134 136 132 131 128 127 119 125 125 127 126 119 117 115 114 113 111 111 108 111 113 111 108 104 100 100 99 97 94 92 93 90 88 85 86
108 110 112 115 120 121 124 126 127 130 126 121 120 111 116 122 125 129 129 127 130 126 128 126 118 121 124 122 120 115 115 113 109 104 100 100 103 98 96 98 97 95 92 91 93 94 92 88 88 84 78 76 76 77
108 107 110 113 115 117 119 120 121 120 117 116 106 103 107 108 117 120 119 118 113 114 121 119 118 119 121 116 111 110 108 107 100 97 93 91 93 91 92 90 85 83 84 85 84 84 84 82 80 75 73 73 68 68
98 102 107 110 111 110 109 107 108 108 109 106 102 97 99 100 102 107 114 106 103 104 106 108 113 116 113 107 102 100 98 96 93 92 89 84 80 82 83 81 80 78 79 80 78 74 76 77 75 69 67 65 63 62
91 96 100 101 102 101 96 98 102 100 99 96 93 91 93 97 100 107 102 101 95 93 108 109 107 108 109 99 94 91 89 89 85 82 80 77 72 73 74 74 75 75 76 77 73 70 69 71 69 67 64 62 60 59
85 85 87 88 88 86 82 84 88 90 91 87 87 89 86 92 97 98 93 86 90 100 103 104 104 96 90 89 82 79 79 79 75 75 76 74 71 69 67 67 68 70 71 66 64 64 66 64 62 60 59 58 56 54
75 74 75 72 71 71 72 74 76 76 77 79 80 80 81 84 84 83 78 80 90 102 101 94 89 86 79 71 71 71 73 75 70 66 68 70 65 62 62 61 62 64 64 54 55 59 60 59 58 56 54 53 52 51
64 62 61 59 61 63 64 65 67 68 71 73 74 75 78 76 70 64 75 86 86 83 81 77 74 73 72 69 66 67 72 75 67 60 62 60 57 57 57 55 56 62 62 49 52 54 54 52 50 50 50 50 49 48
53 51 52 52 53 56 56 59 63 64 65 67 68 69 66 60 63 73 70 70 69 68 66 68 66 64 65 66 64 63 63 62 57 53 51 52 56 57 52 50 53 59 57 47 46 47 49 47 47 46 46 45 45 45
48 48 48 52 54 55 55 55 56 56 58 62 64 63 64 59 58 59 59 62 62 59 58 60 61 57 53 51 51 50 52 53 50 46 46 51 55 51 47 43 47 52 47 44 43 42 43 42 41 42 42 41 42 42
45 48 46 47 51 51 50 54 55 58 62 59 56 51 47 48 54 56 54 51 50 51 50 50 50 46 42 45 49 49 48 46 41 42 43 44 41 37 32 41 42 40 42 41 40 40 40 40 40 38 38 38 38 37
42 40 39 41 40 43 49 49 53 55 49 45 40 41 47 49 48 44 45 44 42 42 42 41 44 41 40 40 42 41 37 35 36 38 36 34 32 32 35 37 35 36 37 36 36 36 36 35 33 34 35 35 35 36
30 31 32 33 37 40 41 41 41 39 38 39 40 41 39 37 36 36 35 33 35 39 37 35 34 33 37 35 34 35 32 36 35 32 32 31 31 31 31 31 32 33 32 32 32 32 31 31 31 32 32 33 33 34
21 21 23 24 24 24 28 32 33 35 35 33 30 24 25 29 34 28 23 30 27 25 26 27 26 27 30 29 30 30 31 30 29 28 28 28 28 27 28 29 29 29 29 29 28 28 28 28 29 30 31 32 33 34
25 26 26 26 27 27 27 27 28 28 26 23 21 21 25 27 24 22 24 18 17 19 22 24 24 25 24 23 23 24 24 24 23 22 23 24 25 24 25 25 24 24 24 24 24 25 26 28 30 32 32 32 32 31
Wind_Direction
269 269 267 266 265 262 262 264 267 270 272 273 276 278 280 282 283 285 283 279 281 283 284 283 291 292 305 290 298 310 312 312 311 326 331 335 344 346 345 348 350 358 357 354 357 0 355 356 358 357 358 358 357 359
265 268 269 271 272 268 267 266 266 267 268 268 272 275 278 279 283 283 284 283 280 281 285 280 285 288 287 295 285 293 303 300 302 303 318 322 330 331 334 337 338 340 352 349 351 349 351 350 352 350 350 350 351 350
260 262 265 269 271 270 271 271 272 270 270 272 275 276 278 280 277 277 280 283 286 285 283 291 279 285 285 287 289 282 300 290 290 295 298 307 316 320 323 328 327 330 337 341 342 334 344 341 344 345 343 342 345 344
256 255 257 260 266 270 270 272 270 268 270 269 268 271 272 272 269 274 276 281 283 284 290 291 283 281 283 288 286 280 289 294 287 287 294 295 305 311 316 323 316 322 328 330 333 328 337 330 334 338 339 339 336 336
255 255 255 256 258 259 267 268 268 267 265 266 266 266 268 265 268 272 276 278 277 277 283 294 293 295 290 287 290 285 282 286 285 294 293 290 297 306 310 315 309 315 319 321 322 324 329 322 327 327 329 332 334 331
256 254 254 254 254 259 260 260 265 267 267 264 263 263 266 267 266 268 272 274 274 275 275 278 292 295 294 289 284 286 282 278 284 291 294 295 296 300 307 303 302 311 312 316 317 320 321 318 321 321 321 323 325 326
258 257 257 256 256 255 257 260 260 262 265 267 265 266 268 269 267 266 265 269 272 277 279 279 278 283 291 291 288 290 288 285 285 288 292 293 292 298 303 299 302 301 303 306 309 313 313 315 315 316 316 317 318 317
260 258 257 257 256 255 257 257 259 261 263 265 265 265 265 267 270 269 266 266 270 270 271 275 276 280 281 281 284 287 288 288 287 289 288 290 292 294 295 295 296 296 299 300 304 306 306 307 308 311 311 311 312 311
262 257 256 258 259 258 257 259 256 259 262 264 264 264 263 267 268 266 267 266 268 269 269 269 270 270 274 277 280 283 286 285 285 287 288 289 291 289 282 288 294 298 297 299 299 298 300 300 302 303 304 305 305 305
263 260 257 255 257 259 258 260 261 258 258 260 262 265 267 266 267 268 270 272 271 270 275 275 274 269 266 268 272 277 281 287 289 284 282 286 292 286 283 281 284 292 292 293 294 295 298 298 298 298 298 298 299 301
261 257 256 257 258 259 259 259 260 260 260 259 259 261 263 262 266 266 269 272 272 274 275 275 276 275 276 274 271 271 273 276 280 285 287 285 280 277 279 282 285 286 284 285 289 291 293 293 293 294 295 295 295 295
255 255 254 256 257 258 260 259 258 258 258 257 257 257 259 261 264 265 267 270 271 273 274 272 271 273 275 276 276 276 279 280 281 280 283 287 277 273 274 277 279 280 279 279 281 283 285 286 287 288 290 291 291 292
252 253 254 254 255 258 258 257 256 256 256 257 258 257 257 259 262 264 268 268 269 270 272 273 272 273 275 276 275 274 275 277 277 280 284 286 281 280 274 274 274 275 276 278 279 280 281 282 283 284 286 288 289 290
253 253 254 255 255 255 255 257 256 255 255 256 256 255 256 259 261 263 265 266 267 267 269 272 272 273 275 275 276 278 277 278 279 280 281 281 279 277 276 275 276 278 278 278 277 280 281 281 282 283 285 288 288 287
252 253 253 254 255 256 255 257 257 256 256 255 255 256 258 261 262 261 261 263 266 267 268 269 270 271 273 275 277 278 280 280 282 283 281 280 280 277 277 276 277 280 280 280 280 281 282 283 285 288 288 288 287 288
251 251 253 254 254 255 255 256 257 258 257 257 258 260 261 260 261 262 263 263 264 265 266 267 270 272 273 273 274 276 278 280 280 280 282 283 283 283 284 282 281 281 281 282 283 284 286 285 286 288 288 289 290 291
249 250 252 253 253 254 254 255 256 256 257 258 260 261 262 262 263 263 264 265 266 267 269 269 270 271 271 273 276 278 279 278 279 282 284 285 286 286 285 284 283 283 282 282 282 283 284 284 285 287 287 288 290 292
249 250 251 252 253 253 254 254 256 257 257 258 258 260 261 262 263 264 265 266 267 267 268 269 271 272 274 277 277 276 276 279 282 282 283 282 283 281 282 282 282 285 283 283 283 286 287 287 289 287 288 288 290 290
250 250 250 251 252 253 254 254 256 257 260 260 259 259 261 261 261 263 265 265 266 269 270 272 274 276 276 276 277 278 281 282 282 281 281 277 278 282 279 278 279 281 284 285 285 285 286 288 288 288 288 288 288 288
251 251 251 251 252 253 253 255 256 257 259 261 261 260 260 261 262 264 263 264 267 268 270 274 275 273 273 274 275 277 277 279 280 281 279 278 280 279 278 280 281 280 282 283 284 283 284 285 285 287 287 286 285 285
250 251 252 253 252 253 253 253 255 258 258 259 261 260 257 259 260 259 261 262 265 267 268 269 268 269 271 272 271 272 274 275 278 279 279 278 279 278 280 283 284 283 282 283 282 282 283 283 285 285 286 288 286 284
251 251 251 251 252 254 254 257 259 258 258 260 259 261 259 259 259 259 260 263 263 264 267 266 265 266 269 271 273 273 273 275 277 278 280 281 278 279 281 281 281 280 281 281 282 281 281 283 284 285 288 286 286 286
250 250 250 251 253 255 258 259 259 259 259 260 262 262 262 261 259 259 262 263 263 264 263 264 266 266 268 271 273 275 277 278 278 279 280 280 278 277 277 277 276 276 278 279 280 281 282 281 283 287 286 285 284 283
249 251 252 254 256 257 257 258 259 261 261 262 261 259 257 258 259 261 263 264 263 260 262 264 264 268 274 276 275 277 279 279 279 278 277 276 276 276 277 276 275 276 276 278 280 282 280 281 283 282 281 282 283 284
251 252 253 255 256 257 256 256 258 259 260 260 259 258 258 257 259 261 264 264 262 260 262 267 269 273 278 279 277 276 275 273 273 274 275 274 273 275 275 272 272 273 274 275 276 277 279 280 281 282 283 283 281 280
254 255 256 256 257 256 256 256 256 257 257 257 258 259 258 257 261 264 261 258 263 268 271 274 275 275 275 275 273 270 268 269 272 275 272 274 274 271 269 269 270 270 270 273 274 276 275 276 277 277 278 279 279 280
254 254 253 254 254 252 252 252 252 252 254 256 258 260 263 263 259 258 260 264 268 271 272 272 273 272 269 271 275 275 275 276 277 274 270 269 266 265 265 266 268 270 275 274 270 270 272 273 275 278 278 279 280 281
250 249 246 244 244 244 244 247 251 252 253 253 253 256 256 258 261 263 262 262 262 264 268 268 269 272 275 275 274 273 269 266 268 269 268 264 264 268 271 273 267 268 273 272 271 270 270 273 275 274 276 279 280 281
244 244 243 242 243 243 242 242 243 245 247 250 254 261 266 262 258 259 263 266 268 268 267 268 268 271 272 266 263 265 268 270 272 271 269 269 273 274 274 263 263 265 265 267 270 270 271 271 272 277 282 280 278 278
249 250 250 250 247 246 245 246 248 252 257 260 261 257 255 257 263 265 266 268 268 267 268 267 264 267 269 271 270 268 267 268 264 262 263 264 263 260 260 264 264 264 266 266 266 268 270 272 275 276 275 276 278 280
258 255 252 250 249 250 254 255 254 255 256 255 254 256 263 268 269 267 268 267 261 259 264 271 273 269 264 261 260 259 255 253 255 258 260 260 261 262 261 262 263 264 266 269 269 268 270 274 275 275 278 281 282 282
247 250 251 249 248 247 246 247 247 248 253 257 263 263 259 257 257 260 259 256 262 266 264 263 261 258 258 257 256 255 253 252 252 254 256 257 258 260 261 261 263 267 268 266 267 270 271 274 279 281 282 282 280 278
226 232 236 238 237 238 240 244 247 248 250 252 251 246 245 251 258 251 254 260 258 255 254 253 251 251 250 250 250 251 252 253 251 249 251 253 253 255 259 261 262 261 263 267 271 275 280 281 281 279 277 276 277 277
Height
10667 10668 10669 10670 10671 10675 10678 10680 10681 10682 10684 10685 10686 10686 10687 10688 10688 10687 10687 10684 10682 10680 10681 10680 10678 10675 10672 10669 10666 10662 10660 10657 10653 10648 10642 10639 10636 10632 10627 10623 10619 10618 10612 10605 10599 10598 10588 10585 10579 10573 10568 10562 10556 10551
10654 10654 10657 10658 10658 10659 10662 10665 10667 10668 10670 10671 10672 10672 10674 10675 10675 10675 10675 10675 10673 10668 10668 10669 10669 10666 10663 10661 10658 10655 10652 10648 10645 10643 10637 10632 10630 10626 10622 10616 10610 10609 10608 10601 10593 10588 10585 10580 10576 10572 10565 10559 10553 10546
10640 10642 10644 10645 10646 10647 10648 10649 10651 10653 10656 10657 10659 10660 10662 10663 10664 10662 10662 10663 10663 10659 10655 10659 10657 10655 10653 10649 10647 10644 10641 10639 10635 10634 10631 10625 10621 10620 10615 10610 10604 10599 10598 10598 10589 10578 10578 10570 10568 10564 10559 10553 10548 10543
10622 10627 10631 10633 10634 10635 10635 10636 10637 10639 10641 10643 10644 10646 10650 10651 10652 10652 10650 10649 10649 10650 10647 10646 10646 10645 10642 10637 10634 10632 10629 10626 10624 10623 10621 10618 10613 10613 10606 10602 10594 10590 10588 10587 10585 10576 10569 10556 10555 10553 10549 10546 10540 10534
10603 10607 10612 10617 10619 10620 10623 10624 10625 10626 10627 10629 10631 10633 10634 10636 10639 10639 10638 10635 10637 10638 10640 10637 10633 10632 10628 10624 10620 10618 10617 10614 10612 10611 10609 10608 10602 10602 10598 10592 10581 10579 10577 10575 10574 10568 10567 10553 10548 10541 10539 10535 10532 10526
10579 10585 10590 10595 10600 10603 10606 10607 10609 10610 10613 10614 10616 10617 10619 10621 10625 10625 10625 10616 10620 10625 10630 10629 10625 10614 10608 10606 10604 10604 10603 10599 10598 10598 10597 10594 10589 10589 10592 10582 10567 10566 10564 10559 10557 10553 10549 10546 10540 10534 10528 10521 10519 10515
10554 10560 10566 10571 10576 10581 10583 10587 10590 10592 10594 10596 10597 10599 10602 10605 10609 10609 10607 10601 10604 10608 10612 10616 10616 10611 10591 10585 10581 10583 10587 10586 10584 10585 10584 10578 10572 10574 10574 10566 10563 10553 10550 10545 10541 10542 10534 10527 10526 10520 10518 10513 10508 10501
10526 10532 10538 10544 10550 10554 10559 10562 10567 10570 10571 10573 10576 10577 10579 10584 10589 10591 10583 10586 10590 10590 10595 10598 10597 10591 10586 10579 10565 10562 10563 10565 10569 10570 10569 10561 10559 10556 10551 10546 10546 10538 10537 10530 10525 10521 10522 10515 10508 10506 10503 10498 10494 10489
10499 10505 10509 10514 10520 10526 10531 10536 10540 10544 10546 10548 10550 10552 10557 10561 10564 10561 10561 10566 10572 10572 10577 10580 10576 10568 10564 10554 10548 10547 10545 10545 10551 10552 10546 10545 10549 10543 10518 10528 10527 10522 10518 10514 10506 10501 10502 10500 10495 10490 10485 10480 10478 10472
10467 10475 10480 10484 10490 10495 10500 10506 10510 10514 10517 10519 10524 10527 10532 10535 10534 10536 10538 10544 10548 10550 10551 10555 10550 10542 10535 10528 10524 10525 10527 10526 10534 10537 10527 10530 10534 10503 10495 10509 10509 10504 10498 10492 10488 10478 10476 10474 10474 10468 10463 10460 10457 10453
10435 10442 10447 10453 10457 10462 10467 10474 10478 10481 10484 10487 10491 10497 10501 10503 10509 10511 10513 10520 10521 10525 10527 10526 10515 10506 10504 10503 10498 10496 10497 10498 10510 10516 10509 10517 10515 10467 10482 10489 10490 10482 10471 10462 10464 10461 10458 10453 10445 10439 10435 10434 10431 10425
10399 10406 10412 10419 10424 10428 10434 10439 10443 10446 10448 10449 10456 10461 10468 10475 10481 10483 10493 10492 10492 10490 10488 10484 10483 10477 10479 10473 10464 10465 10467 10469 10480 10486 10489 10491 10469 10451 10466 10464 10460 10452 10441 10437 10437 10434 10432 10426 10421 10417 10411 10404 10398 10392
10362 10370 10375 10382 10389 10393 10396 10401 10404 10408 10410 10410 10416 10424 10439 10443 10454 10463 10467 10460 10454 10452 10453 10447 10448 10446 10444 10443 10432 10428 10435 10441 10446 10453 10457 10448 10416 10436 10441 10433 10422 10414 10410 10408 10403 10405 10402 10395 10390 10384 10381 10373 10369 10362
10325 10333 10339 10346 10351 10355 10357 10363 10366 10366 10368 10368 10372 10387 10404 10421 10436 10431 10427 10421 10417 10413 10414 10410 10416 10416 10413 10405 10401 10397 10398 10404 10414 10421 10411 10386 10400 10406 10399 10394 10389 10385 10384 10380 10374 10368 10366 10361 10361 10353 10347 10344 10333 10324
10287 10295 10302 10312 10316 10316 10317 10321 10322 10324 10322 10323 10330 10357 10389 10402 10392 10390 10387 10384 10378 10375 10374 10376 10380 10380 10376 10368 10366 10366 10367 10372 10375 10373 10352 10360 10371 10368 10368 10367 10358 10356 10355 10351 10343 10341 10337 10332 10325 10320 10316 10309 10299 10288
10250 10257 10274 10275 10275 10277 10276 10276 10277 10281 10276 10283 10304 10344 10358 10357 10356 10347 10342 10342 10341 10335 10337 10340 10338 10337 10336 10333 10332 10344 10344 10344 10331 10322 10320 10327 10328 10327 10329 10330 10330 10326 10323 10320 10312 10306 10303 10298 10290 10286 10287 10274 10261 10260
10210 10231 10235 10234 10234 10235 10234 10232 10233 10234 10236 10253 10295 10306 10313 10315 10318 10307 10302 10301 10301 10298 10300 10302 10298 10299 10293 10302 10317 10314 10310 10298 10292 10289 10291 10295 10295 10292 10293 10294 10292 10289 10286 10284 10281 10277 10272 10263 10258 10256 10253 10245 10232 10230
10184 10192 10194 10194 10195 10192 10193 10191 10193 10191 10200 10237 10257 10278 10270 10274 10275 10273 10266 10258 10256 10257 10259 10265 10265 10268 10266 10271 10268 10266 10261 10262 10264 10267 10270 10271 10259 10253 10255 10258 10257 10249 10248 10248 10244 10240 10233 10230 10225 10217 10214 10214 10212 10202
10146 10151 10155 10157 10155 10153 10154 10155 10158 10158 10171 10200 10227 10245 10237 10234 10233 10230 10224 10221 10220 10227 10230 10229 10227 10245 10241 10233 10220 10218 10222 10228 10235 10238 10241 10240 10232 10232 10228 10225 10223 10219 10220 10216 10211 10207 10206 10202 10194 10186 10186 10186 10185 10175
10107 10111 10115 10119 10116 10116 10116 10121 10128 10132 10146 10169 10187 10211 10206 10197 10199 10189 10188 10187 10184 10192 10198 10200 10203 10198 10193 10195 10186 10190 10199 10199 10194 10200 10213 10210 10199 10200 10200 10196 10194 10193 10193 10188 10183 10176 10176 10173 10161 10162 10161 10160 10158 10153
10066 10077 10079 10082 10080 10083 10085 10089 10099 10112 10127 10132 10150 10165 10168 10170 10160 10154 10152 10142 10158 10166 10167 10171 10164 10156 10150 10156 10163 10166 10168 10169 10173 10171 10181 10185 10171 10171 10169 10165 10164 10163 10161 10157 10154 10150 10143 10141 10138 10134 10134 10133 10132 10130
10040 10042 10044 10041 10044 10050 10058 10075 10082 10086 10090 10105 10119 10124 10127 10130 10126 10118 10093 10125 10141 10140 10131 10126 10118 10116 10119 10124 10131 10141 10147 10147 10145 10146 10148 10150 10155 10145 10142 10138 10135 10134 10132 10127 10126 10126 10120 10112 10111 10113 10113 10111 10108 10105
10007 10009 10009 10014 10018 10028 10051 10056 10050 10059 10063 10072 10082 10091 10093 10087 10082 10068 10081 10099 10115 10115 10081 10079 10082 10086 10087 10105 10114 10117 10117 10117 10122 10122 10120 10120 10122 10119 10116 10114 10109 10110 10106 10098 10100 10101 10099 10092 10090 10091 10090 10088 10086 10083
9978 9981 9987 9995 10005 10016 10027 10026 10026 10032 10033 10042 10046 10046 10053 10048 10042 10044 10061 10080 10072 10055 10054 10052 10046 10059 10075 10083 10094 10095 10091 10088 10093 10091 10088 10089 10092 10091 10091 10089 10085 10082 10080 10084 10080 10076 10072 10072 10071 10070 10068 10067 10066 10064
9954 9963 9969 9979 9987 9995 9999 10000 9999 10003 10007 10006 10011 10015 10014 10013 10021 10031 10047 10049 10031 10008 10014 10031 10043 10050 10058 10066 10065 10066 10061 10057 10063 10066 10062 10057 10064 10068 10066 10063 10063 10058 10052 10064 10062 10057 10054 10053 10051 10050 10049 10049 10047 10045
9938 9945 9952 9961 9964 9967 9972 9975 9976 9978 9978 9978 9981 9983 9985 9995 10013 10025 10007 9988 9993 10005 10013 10021 10026 10027 10028 10032 10036 10033 10026 10021 10034 10044 10038 10037 10041 10041 10041 10041 10039 10030 10029 10046 10042 10038 10037 10037 10036 10034 10033 10031 10030 10028
9924 9931 9934 9938 9942 9944 9948 9949 9948 9951 9953 9956 9960 9963 9973 9987 9986 9973 9982 9985 9989 9992 9996 9995 9999 10002 10002 10002 10006 10009 10008 10009 10015 10018 10018 10017 10011 10011 10018 10021 10018 10010 10013 10023 10025 10024 10021 10020 10019 10018 10017 10015 10014 10013
9904 9907 9910 9911 9913 9917 9922 9927 9931 9935 9937 9936 9938 9944 9948 9960 9961 9960 9966 9966 9970 9976 9978 9975 9974 9980 9987 9989 9989 9989 9986 9985 9989 9995 9996 9993 9990 9996 10002 10006 10001 9996 10001 10004 10005 10006 10006 10005 10004 10002 10001 10000 9999 9998
9885 9886 9892 9897 9898 9902 9907 9907 9910 9911 9909 9917 9928 9939 9945 9943 9938 9941 9947 9952 9954 9956 9958 9961 9962 9965 9969 9965 9963 9964 9968 9971 9976 9976 9977 9976 9980 9985 9989 9983 9984 9988 9988 9989 9990 9990 9990 9989 9989 9989 9988 9987 9985 9984
9876 9881 9885 9888 9892 9894 9892 9897 9899 9902 9912 9920 9924 9923 9919 9921 9927 9934 9935 9937 9939 9942 9943 9945 9944 9946 9949 9952 9950 9952 9956 9960 9960 9958 9961 9964 9967 9969 9969 9969 9973 9974 9975 9976 9976 9976 9977 9977 9976 9975 9974 9973 9972 9971
9869 9872 9875 9878 9881 9883 9887 9893 9895 9898 9901 9903 9905 9907 9912 9916 9918 9920 9924 9927 9926 9926 9928 9932 9936 9938 9936 9938 9939 9940 9945 9942 9944 9948 9949 9951 9953 9955 9957 9959 9960 9961 9962 9963 9963 9964 9964 9963 9963 9962 9961 9960 9960 9959
9859 9863 9867 9870 9873 9877 9878 9880 9883 9885 9888 9891 9896 9903 9904 9905 9903 9908 9912 9911 9914 9917 9919 9922 9924 9925 9925 9927 9928 9929 9931 9934 9935 9937 9939 9940 9942 9944 9945 9947 9949 9950 9951 9952 9952 9952 9951 9951 9951 9951 9951 9950 9949 9947
9849 9852 9855 9859 9862 9866 9870 9872 9875 9877 9882 9886 9890 9892 9892 9894 9898 9900 9900 9904 9906 9908 9909 9911 9912 9914 9915 9917 9918 9920 9922 9924 9925 9927 9929 9930 9932 9934 9936 9938 9939 9940 9940 9940 9940 9940 9940 9941 9941 9941 9941 9940 9938 9937